Joliet, IL

10:59 AM CDT on September 26, 2016 (GMT -0500)
Joliet Regional

Weather History for KJOT - February, 2013

Change the Weather History Date:

Saturday, February 9, 2013

  Actual Average (KLOT) Record (KLOT)
Temperature  
Mean Temperature 29 °F 26 °F  
Max Temperature 34 °F 34 °F 55 °F (2001)
Min Temperature 24 °F 18 °F -8 °F (2011)
Degree Days  
Heating Degree Days 36 39  
Month to date heating degree days 362  
Since 1 July heating degree days 4043  
Cooling Degree Days 0 0  
Month to date cooling degree days 0  
Year to date cooling degree days 0  
Moisture  
Dew Point 24 °F    
Average Humidity 81    
Maximum Humidity 92    
Minimum Humidity 72    
Precipitation  
Precipitation 0.00 in 0.06 in 0.47 in (2010)
Month to date precipitation 0.49  
Year to date precipitation 2.42  
Snow  
Snow 0.00 in 0.20 in 7.00 in (2010)
Month to date snowfall 2.3  
Since 1 July snowfall 23.3  
Snow Depth -    
Sea Level Pressure  
Sea Level Pressure 30.27 in    
Wind  
Wind Speed 4 mph (NNW)    
Max Wind Speed 14 mph    
Max Gust Speed 18 mph    
Visibility 10 miles    
Events      
T = Trace of Precipitation, MM = Missing Value Source: NWS Daily Summary

Daily Weather History Graph

Daily Weather History Graph

Search for Another Location

Airport or City:

Trip Planner

Search our weather history database for the weather conditions in past years. The results will help you decide how hot, cold, wet, or windy it might be!

Date:

Astronomy

Feb. 09, 2013 Rise Set
Actual Time 6:55 AM CST 5:19 PM CST
Civil Twilight 6:26 AM CST 5:47 PM CST
Nautical Twilight 5:53 AM CST 6:20 PM CST
Astronomical Twilight 5:21 AM CST 6:52 PM CST
Moon 6:06 AM CST (2/9) 5:02 PM CST (2/9)
Length of Visible Light 11h 21m
Length of Day
10h 23m
Waning Crescent, 0% of the Moon is Illuminated
Feb 9
Waning Crescent
Feb 10
New
Feb 17
First Quarter
Feb 25
Full
Mar 4
Last Quarter

Hourly Weather History & Observations

Time (CST) Temp. Windchill Dew Point Humidity Pressure Visibility Wind Dir Wind Speed Gust Speed Precip Events Conditions
12:15 AM 24.8 °F - 22.5 °F 91% 30.39 in 7.0 mi Calm Calm - N/A   Overcast
12:35 AM 24.8 °F - 22.5 °F 91% 30.38 in 7.0 mi Calm Calm - N/A   Overcast
12:55 AM 24.8 °F - 22.5 °F 91% 30.37 in 7.0 mi Calm Calm - N/A   Overcast
1:15 AM 24.8 °F - 22.6 °F 91% 30.38 in 7.0 mi Calm Calm - N/A   Overcast
1:35 AM 25.2 °F - 22.8 °F 91% 30.38 in 7.0 mi Calm Calm - N/A   Overcast
1:55 AM 25.3 °F - 22.8 °F 90% 30.38 in 7.0 mi Calm Calm - N/A   Overcast
2:15 AM 25.7 °F - 23.0 °F 89% 30.39 in 7.0 mi Calm Calm - N/A   Overcast
2:35 AM 25.7 °F - 23.0 °F 89% 30.38 in 7.0 mi Calm Calm - N/A   Overcast
2:55 AM 25.9 °F - 23.7 °F 92% 30.38 in 7.0 mi Calm Calm - N/A   Overcast
3:15 AM 26.1 °F 21.9 °F 23.7 °F 91% 30.37 in 7.0 mi NNW 3.5 mph - N/A   Overcast
3:35 AM 26.6 °F - 23.5 °F 88% 30.38 in 7.0 mi Calm Calm - N/A   Overcast
3:55 AM 26.6 °F - 23.0 °F 86% 30.37 in 10.0 mi Calm Calm - N/A   Overcast
4:15 AM 26.8 °F 20.2 °F 21.6 °F 81% 30.37 in 10.0 mi North 5.8 mph - N/A   Overcast
4:35 AM 26.6 °F 21.2 °F 20.7 °F 78% 30.38 in 10.0 mi North 4.6 mph - N/A   Overcast
4:55 AM 26.6 °F 21.2 °F 20.8 °F 79% 30.39 in 10.0 mi North 4.6 mph - N/A   Overcast
5:15 AM 26.6 °F 21.2 °F 20.8 °F 79% 30.38 in 10.0 mi NNW 4.6 mph - N/A   Overcast
5:35 AM 26.6 °F 20.0 °F 20.8 °F 79% 30.37 in 10.0 mi NNW 5.8 mph - N/A   Overcast
5:55 AM 26.6 °F 20.0 °F 21.0 °F 79% 30.38 in 10.0 mi NNW 5.8 mph - N/A   Overcast
6:15 AM 26.8 °F 18.5 °F 21.0 °F 79% 30.38 in 10.0 mi North 8.1 mph - N/A   Overcast
6:35 AM 27.0 °F 20.5 °F 21.2 °F 79% 30.38 in 10.0 mi NNW 5.8 mph - N/A   Overcast
6:55 AM 26.8 °F 21.4 °F 21.2 °F 79% 30.37 in 10.0 mi North 4.6 mph - N/A   Overcast
7:15 AM 27.0 °F 20.5 °F 21.2 °F 79% 30.37 in 10.0 mi North 5.8 mph - N/A   Overcast
7:35 AM 27.3 °F 22.0 °F 21.2 °F 78% 30.38 in 10.0 mi North 4.6 mph - N/A   Overcast
7:55 AM 27.3 °F 19.1 °F 21.4 °F 78% 30.37 in 10.0 mi North 8.1 mph - N/A   Overcast
8:55 AM 28.2 °F 21.0 °F 21.9 °F 77% 30.36 in 10.0 mi North 6.9 mph - N/A   Overcast
9:15 AM 28.4 °F 20.4 °F 21.6 °F 76% 30.36 in 10.0 mi NNW 8.1 mph - N/A   Overcast
9:35 AM 28.9 °F 19.2 °F 22.1 °F 76% 30.36 in 10.0 mi North 11.5 mph - N/A   Overcast
9:55 AM 29.3 °F 20.8 °F 22.3 °F 75% 30.36 in 10.0 mi North 9.2 mph - N/A   Overcast
10:15 AM 29.7 °F 22.8 °F 22.3 °F 74% 30.36 in 10.0 mi North 6.9 mph - N/A   Overcast
10:35 AM 29.8 °F 22.2 °F 22.6 °F 75% 30.36 in 10.0 mi North 8.1 mph - N/A   Overcast
10:55 AM 30.4 °F 22.2 °F 23.2 °F 75% 30.36 in 10.0 mi North 9.2 mph - N/A   Overcast
11:15 AM 30.7 °F 22.0 °F 23.2 °F 74% 30.35 in 10.0 mi North 10.4 mph - N/A   Overcast
11:35 AM 31.6 °F 22.6 °F 23.7 °F 73% 30.33 in 10.0 mi NNW 11.5 mph - N/A   Overcast
11:55 AM 31.8 °F 22.3 °F 24.4 °F 74% 30.32 in 10.0 mi North 12.7 mph 16.1 mph N/A   Overcast
12:15 PM 31.5 °F 21.8 °F 24.1 °F 74% 30.30 in 10.0 mi NNW 12.7 mph - N/A   Overcast
12:35 PM 32.0 °F 23.0 °F 24.4 °F 74% 30.30 in 10.0 mi NNW 11.5 mph 18.4 mph N/A   Overcast
12:55 PM 31.8 °F 22.3 °F 23.9 °F 73% 30.29 in 10.0 mi NNW 12.7 mph - N/A   Mostly Cloudy
1:15 PM 32.0 °F 22.1 °F 24.8 °F 75% 30.27 in 10.0 mi NNW 13.8 mph 17.3 mph N/A   Mostly Cloudy
1:35 PM 32.0 °F 23.0 °F 24.8 °F 75% 30.26 in 10.0 mi North 11.5 mph 17.3 mph N/A   Mostly Cloudy
1:55 PM 32.0 °F 22.5 °F 25.0 °F 75% 30.25 in 10.0 mi NNW 12.7 mph 18.4 mph N/A   Mostly Cloudy
2:15 PM 32.0 °F 23.0 °F 24.8 °F 75% 30.24 in 10.0 mi NNW 11.5 mph 18.4 mph N/A   Overcast
2:35 PM 32.0 °F 23.6 °F 25.3 °F 76% 30.24 in 10.0 mi North 10.4 mph 16.1 mph N/A   Mostly Cloudy
2:55 PM 34.0 °F 26.0 °F 25.9 °F 72% 30.23 in 10.0 mi North 10.4 mph 17.3 mph N/A   Mostly Cloudy
3:15 PM 33.8 °F 25.3 °F 26.4 °F 74% 30.22 in 10.0 mi North 11.5 mph 18.4 mph N/A   Mostly Cloudy
3:35 PM 33.3 °F 25.7 °F 26.4 °F 76% 30.22 in 10.0 mi North 9.2 mph - N/A   Scattered Clouds
3:55 PM 32.9 °F 25.9 °F 26.1 °F 76% 30.20 in 10.0 mi North 8.1 mph 18.4 mph N/A   Scattered Clouds
4:15 PM 32.4 °F 24.0 °F 26.2 °F 78% 30.20 in 10.0 mi NNW 10.4 mph - N/A   Clear
4:35 PM 32.0 °F 25.6 °F 26.4 °F 80% 30.19 in 10.0 mi North 6.9 mph - N/A   Clear
4:55 PM 32.0 °F 26.4 °F 26.8 °F 81% 30.18 in 10.0 mi North 5.8 mph - N/A   Clear
5:15 PM 32.0 °F 26.4 °F 27.0 °F 82% 30.17 in 10.0 mi North 5.8 mph - N/A   Clear
5:35 PM 31.6 °F 27.0 °F 27.1 °F 83% 30.17 in 10.0 mi North 4.6 mph - N/A   Clear
5:55 PM 31.5 °F 28.1 °F 27.1 °F 84% 30.17 in 10.0 mi North 3.5 mph - N/A   Clear
6:15 PM 31.8 °F - 27.5 °F 84% 30.16 in 10.0 mi Calm Calm - N/A   Clear
6:35 PM 31.3 °F - 27.3 °F 85% 30.16 in 10.0 mi Calm Calm - N/A   Clear
6:55 PM 29.1 °F - 26.1 °F 88% 30.15 in 10.0 mi Calm Calm - N/A   Clear
7:15 PM 29.5 °F - 26.4 °F 88% 30.14 in 10.0 mi Calm Calm - N/A   Clear
7:35 PM 29.8 °F 24.9 °F 27.1 °F 90% 30.14 in 10.0 mi North 4.6 mph - N/A   Clear
7:55 PM 31.1 °F 25.4 °F 28.0 °F 88% 30.14 in 10.0 mi NNW 5.8 mph - N/A   Clear
8:15 PM 31.8 °F 26.2 °F 28.0 °F 86% 30.13 in 10.0 mi NNW 5.8 mph - N/A   Clear
8:35 PM 32.2 °F 25.0 °F 28.2 °F 85% 30.12 in 10.0 mi NNW 8.1 mph - N/A   Clear
8:55 PM 33.3 °F 25.7 °F 28.4 °F 82% 30.12 in 10.0 mi North 9.2 mph - N/A   Clear
9:15 PM 33.8 °F 27.0 °F 28.2 °F 80% 30.12 in 10.0 mi NNW 8.1 mph - N/A   Clear
9:35 PM 33.1 °F 26.1 °F 27.5 °F 80% 30.11 in 10.0 mi North 8.1 mph - N/A   Clear
9:55 PM 32.4 °F 26.9 °F 27.5 °F 82% 30.11 in 10.0 mi North 5.8 mph - N/A   Clear
10:15 PM 32.0 °F 25.6 °F 27.3 °F 83% 30.10 in 10.0 mi North 6.9 mph - N/A   Clear
10:35 PM 32.0 °F 26.4 °F 27.5 °F 83% 30.09 in 10.0 mi NNW 5.8 mph - N/A   Clear
10:55 PM 32.0 °F 26.4 °F 27.1 °F 82% 30.09 in 10.0 mi North 5.8 mph - N/A   Clear
11:15 PM 32.0 °F 26.4 °F 26.8 °F 81% 30.09 in 10.0 mi North 5.8 mph - N/A   Clear
11:35 PM 32.0 °F 26.4 °F 26.6 °F 80% 30.08 in 10.0 mi NNW 5.8 mph - N/A   Clear
11:55 PM 32.2 °F 27.7 °F 26.6 °F 80% 30.07 in 10.0 mi NNW 4.6 mph - N/A   Clear